Location: Unspecified
(40.7945°N, 0.0000°E)
Time: 04:09:23
(UTC+00:00)

TIGRISAT - Pass Details

Date: 27 August 2019
Orbit: 604 x 690 km, 97.7° (Epoch: 14 October)

Event Time Altitude Azimuth Distance (km) Brightness Sun altitude
Rises 21:25:23 0° 5° (N) 3,018 ? -27.8°
Reaches altitude 10° 21:27:43 10° 359° (N) 2,087 ? -28.1°
Maximum altitude 21:32:01 43° 288° (WNW) 916 ? -28.7°
Enters shadow 21:32:26 42° 272° (W) 932 ? -28.7°
